Flag for U.S.A. Weather past 2 weeks in Bakersfield, California, U.S.A.

Now
84 °F

Clear.


Feels Like: 82 °F
Forecast: 76 / 100 °F
Wind: 9 mph from North

Location: Meadows Field

Current Time: Aug 1, 2015 at 1:57:50 AM

Latest Report: Aug 1, 2015 at 12:54 AM


Visibility: 10 mi

Pressure: 29.90 "Hg

Humidity: 29%

Dew point: 48 °F

Location of BakersfieldLocation

Historic Weather in Bakersfield — Graph

°F

Bakersfield temperature yesterday

Maximum temperature yesterday: 104 °F (at 3:54 PM)
Minimum temperature yesterday: 81 °F (at 2:54 AM)
Average temperature yesterday: 92 °F

Past Weeks' High & Low Weather Summary

 TemperatureHumidityPressure
High106 °F (Jul 29, 3:54 PM)79% (Jul 18, 7:54 PM)30.07 "Hg (Jul 18, 7:54 PM)
Low67 °F (Jul 24, 4:54 AM)10% (Jul 30, 1:54 AM)29.64 "Hg (Jul 17, 5:54 PM)
Average85 °F31%29.87 "Hg
* Reported Jul 16 11:54 PM — Jul 31 11:54 PM, Bakersfield, Weather by CustomWeather, © 2015

Note: Actual official high and low records may vary slightly from our data, if they occured in-between our weather recording intervals... More about our weather records

Advertising

Bakersfield weather history for previous 24 hours

 ConditionsComfort  
Time TempWeatherWind HumidityBarometerVisibility
11:54 PM
Fri, Jul 31
85 °FClear.10 mph26%29.89 "Hg10 mi
10:54 PM87 °FClear.8 mph28%29.89 "Hg10 mi
9:54 PM88 °FClear.7 mph27%29.88 "Hg10 mi
8:54 PM91 °FSunny.15 mph26%29.84 "Hg10 mi
7:54 PM94 °FSunny.15 mph28%29.81 "Hg10 mi
6:54 PM100 °FSunny.18 mph22%29.79 "Hg9 mi
5:54 PM104 °FSunny.13 mph18%29.78 "Hg10 mi
4:54 PM104 °FSunny.9 mph17%29.80 "Hg10 mi
3:54 PM104 °FSunny.13 mph16%29.81 "Hg10 mi
2:54 PM103 °FSunny.10 mph15%29.84 "Hg10 mi
1:54 PM101 °FSunny.3 mph15%29.87 "Hg10 mi
12:54 PM99 °FSunny.7 mph17%29.89 "Hg10 mi
11:54 AM97 °FSunny.9 mph16%29.91 "Hg10 mi
10:54 AM95 °FSunny.8 mph17%29.93 "Hg10 mi
9:54 AM92 °FSunny.5 mph22%29.93 "Hg10 mi
8:54 AM88 °FSunny.No wind28%29.95 "Hg10 mi
7:54 AM86 °FSunny.3 mph32%29.95 "Hg10 mi
6:54 AM82 °FClear.5 mph34%29.93 "Hg10 mi
5:54 AM84 °FClear.8 mph29%29.91 "Hg10 mi
4:54 AM83 °FPleasantly warm.7 mph28%29.90 "Hg10 mi
3:54 AM82 °FClear.No wind32%29.89 "Hg10 mi
2:54 AM81 °FClear.3 mph35%29.89 "Hg10 mi
1:54 AM83 °FClear.No wind30%29.90 "Hg10 mi
Weather by CustomWeather, © 2015

See weather overviewHow to use our weather pages